Domov               UVHVVR             MKGP            O straneh              
ZDRAVSTVENO VARSTVO RASTLIN
  MREŽA AGROMET. POSTAJ
 ► PROGNOSTIČNA OBVESTILA
AGROMETEOROLOŠKI PODATKI -
ARSO
OBVLADOVANJE TVEGANJ ZARADI
NEUGODNIH VREMENSKIH RAZMER
  ► NARAVNE NESREČE
  ► SUŠA/MOČA
  ► NAMAKANJE
  ► ŽLED (gozdarstvo)
KARTOGRAFSKI PRIKAZI
SPLETNE POVEZAVE
PROJEKTI IN PUBLIKACIJE

AGROMETEOROLOŠKA MREŽA: VREMENSKE POSTAJE IN FENOLOŠKA OPAZOVANJA

Pregled podatkov za lokacijo Kozana, meteorološka postaja 863701

Pregled senzorjev na lokaciji

ID Ime Zadnja
vrednost
Datum
zadnje
spremembe
Tip
senzorja
4188 Omočenost lista (U) 0 U 23.3.2019 12:00 A730WET
4189 Padavine (mm) 0 mm 23.3.2019 11:59 Rain-O-Matic
4187 Relativna vlaga 2 m (% RH) 27,87 % RH 23.3.2019 12:00 50YA
4186 Temperatura 2 m (°C) 20,9 °C 23.3.2019 12:00 50YA

Pregled podatkov zadnjih 24 ur

Zap.
št.
Datum in čas Kozana
Omočenost
lista
Padavine Relativna
vlaga
2
m
Temperatura
2
m
1 23.3.2019 11:00 0 0 27,9 20,9
2 23.3.2019 10:30 0 0 28,8 19,4
3 23.3.2019 10:00 0 0 29,7 18,7
4 23.3.2019 09:30 0 0 31 17,9
5 23.3.2019 09:00 0 0 32,7 16,5
6 23.3.2019 08:30 0 0 34,8 15,1
7 23.3.2019 08:00 0 0 37,2 13,8
8 23.3.2019 07:30 0 0 39,3 12,7
9 23.3.2019 07:00 0 0 41,3 11,7
10 23.3.2019 06:30 0 0 39,6 12
11 23.3.2019 06:00 0 0 37,9 12,8
12 23.3.2019 05:30 0 0 38,7 12,6
13 23.3.2019 05:00 0 0 37,6 12,9
14 23.3.2019 04:30 0 0 36,4 13,4
15 23.3.2019 04:00 0 0 36,1 13,4
16 23.3.2019 03:30 0 0 36,6 13,3
17 23.3.2019 03:00 0 0 37 13,1
18 23.3.2019 02:30 0 0 36,6 13,2
19 23.3.2019 02:00 0 0 35,6 13,5
20 23.3.2019 01:30 0 0 34 14
21 23.3.2019 01:00 0 0 33,3 14,3
22 23.3.2019 00:30 0 0 33,6 14,3
23 23.3.2019 00:00 0 0 34 14,3
24 22.3.2019 23:30 0 0 34,3 14,4
25 22.3.2019 23:00 0 0 34,1 14,6
26 22.3.2019 22:30 0 0 33,7 14,8
27 22.3.2019 22:00 0 0 31,9 15,5
28 22.3.2019 21:30 0 0 30,9 15,9
29 22.3.2019 21:00 0 0 30,4 16,1
30 22.3.2019 20:30 0 0 29,9 16,3
31 22.3.2019 20:00 0 0 29,9 16,4
32 22.3.2019 19:30 0 0 31,5 15,7
33 22.3.2019 19:00 0 0 30,1 16,4
34 22.3.2019 18:30 0 0 29,3 17
35 22.3.2019 18:00 0 0 26,4 18
36 22.3.2019 17:30 0 0 22,3 19
37 22.3.2019 17:00 0 0 18,9 20,1
38 22.3.2019 16:30 0 0 16,6 20,5
39 22.3.2019 16:00 0 0 18,4 20,8
40 22.3.2019 15:30 0 0 19,9 21,1
41 22.3.2019 15:00 0 0 20,7 21,5
42 22.3.2019 14:30 0 0 21,1 21,3
43 22.3.2019 14:00 0 0 23,3 21
44 22.3.2019 13:30 0 0 24 20,6
45 22.3.2019 13:00 0 0 24,7 20
46 22.3.2019 12:30 0 0 26,7 19,6
47 22.3.2019 12:00 0 0 28,3 19
48 22.3.2019 11:30 0 0 27 17,9
© 2011 Ministrstvo za kmetijstvo, gozdarstvo in prehrano. Vse pravice pridržane.